• In Belarus
  • List of Countries
  • For 7 days
  • Water Temperature
  • Satellite Maps
  • Weather Map
  • Weather Widgets
  • user-avatar
    Login

    Hourly Weather Belize

    Today, 17 December, Sunday

    Time Temperature Precipitation Wind Pressure Humidity
    00:00 +23°C° 0 mm 4 mps 762 mmHg 98%
    01:00 +23°C° 0.1 mm 4 mps 762 mmHg 98%
    02:00 +23°C° 0.1 mm 4 mps 761 mmHg 98%
    03:00 +23°C° 0.1 mm 4 mps 761 mmHg 98%
    04:00 +23°C° 0 mm 4 mps 761 mmHg 98%
    05:00 +23°C° 0 mm 4 mps 762 mmHg 98%
    06:00 +23°C° 0 mm 4 mps 762 mmHg 98%
    07:00 +25°C° 0.2 mm 5 mps 762 mmHg 95%
    08:00 +26°C° 0.2 mm 5 mps 762 mmHg 93%
    09:00 +28°C° 0.2 mm 5 mps 763 mmHg 90%
    10:00 +28°C° 0.3 mm 5 mps 762 mmHg 84%
    11:00 +29°C° 0.3 mm 5 mps 762 mmHg 78%
    12:00 +30°C° 0.3 mm 5 mps 762 mmHg 72%
    13:00 +30°C° 0.2 mm 5 mps 762 mmHg 72%
    14:00 +30°C° 0.2 mm 5 mps 761 mmHg 72%
    15:00 +30°C° 0.2 mm 5 mps 760 mmHg 72%
    16:00 +28°C° 0.1 mm 4 mps 761 mmHg 78%
    17:00 +27°C° 0.1 mm 4 mps 761 mmHg 85%
    18:00 +26°C° 0.1 mm 4 mps 761 mmHg 92%
    19:00 +25°C° 0.1 mm 4 mps 761 mmHg 94%
    20:00 +25°C° 0.1 mm 4 mps 761 mmHg 96%
    21:00 +25°C° 0.1 mm 4 mps 762 mmHg 97%
    22:00 +25°C° 0.1 mm 4 mps 762 mmHg 98%
    23:00 +25°C° 0.1 mm 4 mps 762 mmHg 98%

    Tomorrow, 18 December, Monday

    Time Temperature Precipitation Wind Pressure Humidity
    00:00 +25°C° 0.1 mm 4 mps 762 mmHg 98%
    01:00 +25°C° 0.2 mm 4 mps 761 mmHg 98%
    02:00 +25°C° 0.2 mm 4 mps 761 mmHg 98%
    03:00 +25°C° 0.2 mm 5 mps 761 mmHg 98%
    04:00 +25°C° 0.5 mm 5 mps 761 mmHg 98%
    05:00 +25°C° 0.5 mm 5 mps 761 mmHg 98%
    06:00 +25°C° 0.5 mm 5 mps 761 mmHg 98%
    07:00 +26°C° 0.9 mm 5 mps 762 mmHg 97%
    08:00 +27°C° 0.9 mm 6 mps 762 mmHg 95%
    09:00 +27°C° 0.9 mm 6 mps 763 mmHg 93%
    10:00 +28°C° 0.5 mm 6 mps 763 mmHg 92%
    11:00 +28°C° 0.5 mm 6 mps 763 mmHg 91%
    12:00 +29°C° 0.5 mm 6 mps 763 mmHg 91%
    13:00 +29°C° 0.3 mm 6 mps 762 mmHg 87%
    14:00 +29°C° 0.3 mm 5 mps 761 mmHg 84%
    15:00 +29°C° 0.3 mm 5 mps 761 mmHg 81%
    16:00 +28°C° 0.1 mm 5 mps 761 mmHg 85%
    17:00 +27°C° 0.1 mm 5 mps 761 mmHg 89%
    18:00 +26°C° 0.1 mm 5 mps 761 mmHg 94%
    19:00 +26°C° 0.1 mm 5 mps 762 mmHg 95%
    20:00 +25°C° 0.1 mm 5 mps 762 mmHg 96%
    21:00 +25°C° 0.1 mm 5 mps 763 mmHg 98%
    22:00 +25°C° 0.1 mm 5 mps 763 mmHg 98%
    23:00 +25°C° 0.1 mm 5 mps 763 mmHg 98%

    Day after tomorrow, 19 December, Tuesday

    Time Temperature Precipitation Wind Pressure Humidity
    00:00 +25°C° 0.1 mm 5 mps 763 mmHg 98%
    01:00 +25°C° 0.1 mm 4 mps 762 mmHg 98%
    02:00 +25°C° 0.1 mm 4 mps 762 mmHg 98%
    03:00 +25°C° 0.1 mm 4 mps 762 mmHg 98%
    04:00 +25°C° 0.1 mm 4 mps 762 mmHg 98%
    05:00 +25°C° 0.1 mm 4 mps 762 mmHg 98%
    06:00 +25°C° 0.1 mm 4 mps 762 mmHg 98%
    07:00 +26°C° 0.3 mm 5 mps 763 mmHg 96%
    08:00 +27°C° 0.3 mm 5 mps 763 mmHg 94%
    09:00 +28°C° 0.3 mm 5 mps 764 mmHg 92%
    10:00 +28°C° 0.6 mm 5 mps 763 mmHg 90%
    11:00 +29°C° 0.6 mm 6 mps 763 mmHg 89%
    12:00 +29°C° 0.6 mm 6 mps 763 mmHg 87%
    13:00 +29°C° 0.5 mm 5 mps 762 mmHg 87%
    14:00 +29°C° 0.5 mm 5 mps 761 mmHg 87%
    15:00 +28°C° 0.5 mm 5 mps 760 mmHg 88%
    16:00 +28°C° 0.2 mm 5 mps 761 mmHg 91%
    17:00 +27°C° 0.2 mm 5 mps 761 mmHg 93%
    18:00 +26°C° 0.2 mm 4 mps 761 mmHg 96%
    19:00 +26°C° 0.1 mm 4 mps 761 mmHg 97%
    20:00 +25°C° 0.1 mm 4 mps 762 mmHg 98%
    21:00 +25°C° 0.1 mm 4 mps 762 mmHg 98%
    22:00 +25°C° 0.1 mm 4 mps 762 mmHg 98%
    23:00 +25°C° 0.1 mm 4 mps 762 mmHg 98%

    20 December, Wednesday

    Time Temperature Precipitation Wind Pressure Humidity
    00:00 +25°C° 0.1 mm 4 mps 762 mmHg 98%
    01:00 +25°C° 0.1 mm 4 mps 762 mmHg 98%
    02:00 +25°C° 0.1 mm 4 mps 761 mmHg 98%
    03:00 +25°C° 0.1 mm 3 mps 761 mmHg 98%
    04:00 +24°C° 0 mm 3 mps 761 mmHg 98%
    05:00 +24°C° 0 mm 3 mps 761 mmHg 98%
    06:00 +24°C° 0 mm 3 mps 761 mmHg 98%
    07:00 +26°C° 0 mm 3 mps 762 mmHg 94%
    08:00 +27°C° 0 mm 3 mps 762 mmHg 90%
    09:00 +28°C° 0 mm 4 mps 763 mmHg 86%
    10:00 +29°C° 0.2 mm 4 mps 763 mmHg 79%
    11:00 +30°C° 0.2 mm 4 mps 762 mmHg 73%
    12:00 +32°C° 0.2 mm 4 mps 762 mmHg 67%
    13:00 +32°C° 0.1 mm 4 mps 761 mmHg 67%
    14:00 +31°C° 0.1 mm 3 mps 760 mmHg 66%
    15:00 +31°C° 0.1 mm 3 mps 760 mmHg 66%
    16:00 +29°C° 0.1 mm 3 mps 760 mmHg 75%
    17:00 +27°C° 0.1 mm 3 mps 760 mmHg 83%
    18:00 +26°C° 0.1 mm 3 mps 760 mmHg 91%
    19:00 +25°C° 0.2 mm 3 mps 761 mmHg 94%
    20:00 +25°C° 0.2 mm 3 mps 761 mmHg 96%
    21:00 +25°C° 0.2 mm 3 mps 761 mmHg 98%
    22:00 +25°C° 0.2 mm 3 mps 761 mmHg 98%
    23:00 +25°C° 0.2 mm 3 mps 761 mmHg 99%

    21 December, Thursday

    Time Temperature Precipitation Wind Pressure Humidity
    00:00 +25°C° 0.2 mm 3 mps 761 mmHg 99%
    01:00 +25°C° 0.2 mm 3 mps 760 mmHg 99%
    02:00 +24°C° 0.2 mm 3 mps 760 mmHg 99%
    03:00 +24°C° 0.2 mm 3 mps 760 mmHg 99%
    04:00 +24°C° 0.1 mm 3 mps 760 mmHg 99%
    05:00 +24°C° 0.1 mm 3 mps 760 mmHg 99%
    06:00 +24°C° 0.1 mm 3 mps 760 mmHg 99%
    07:00 +26°C° 0.1 mm 3 mps 761 mmHg 95%
    08:00 +27°C° 0.1 mm 3 mps 761 mmHg 91%
    09:00 +28°C° 0.1 mm 3 mps 762 mmHg 87%
    10:00 +30°C° 0.1 mm 3 mps 762 mmHg 78%
    11:00 +31°C° 0.1 mm 3 mps 761 mmHg 68%
    12:00 +33°C° 0.1 mm 3 mps 761 mmHg 59%
    13:00 +33°C° 0.1 mm 3 mps 760 mmHg 61%
    14:00 +31°C° 0.1 mm 3 mps 760 mmHg 62%
    15:00 +31°C° 0.1 mm 3 mps 759 mmHg 64%
    16:00 +29°C° 0.1 mm 4 mps 759 mmHg 73%
    17:00 +28°C° 0.1 mm 4 mps 759 mmHg 82%
    18:00 +26°C° 0.1 mm 4 mps 760 mmHg 91%
    19:00 +26°C° 0.1 mm 4 mps 760 mmHg 93%
    20:00 +25°C° 0.1 mm 4 mps 761 mmHg 96%
    21:00 +25°C° 0.1 mm 5 mps 761 mmHg 98%
    22:00 +25°C° 0.1 mm 5 mps 761 mmHg 98%
    23:00 +25°C° 0.1 mm 5 mps 760 mmHg 98%

    22 December, Friday

    Time Temperature Precipitation Wind Pressure Humidity
    00:00 +25°C° 0.1 mm 5 mps 760 mmHg 98%
    01:00 +25°C° 0.2 mm 5 mps 760 mmHg 98%
    02:00 +25°C° 0.2 mm 5 mps 760 mmHg 98%
    03:00 +25°C° 0.2 mm 5 mps 759 mmHg 98%
    04:00 +25°C° 0.2 mm 5 mps 759 mmHg 98%
    05:00 +25°C° 0.2 mm 5 mps 760 mmHg 98%
    06:00 +25°C° 0.2 mm 5 mps 760 mmHg 98%
    07:00 +26°C° 0.1 mm 5 mps 761 mmHg 95%
    08:00 +27°C° 0.1 mm 5 mps 761 mmHg 92%
    09:00 +28°C° 0.1 mm 5 mps 762 mmHg 89%
    10:00 +29°C° 0.2 mm 5 mps 761 mmHg 82%
    11:00 +30°C° 0.2 mm 5 mps 761 mmHg 75%
    12:00 +32°C° 0.2 mm 5 mps 761 mmHg 67%
    13:00 +32°C° 0.2 mm 5 mps 760 mmHg 69%
    14:00 +30°C° 0.2 mm 5 mps 760 mmHg 70%
    15:00 +30°C° 0.2 mm 5 mps 760 mmHg 72%
    16:00 +28°C° 0.1 mm 5 mps 760 mmHg 80%
    17:00 +27°C° 0.1 mm 5 mps 760 mmHg 88%
    18:00 +26°C° 0.1 mm 5 mps 761 mmHg 96%
    19:00 +25°C° 0 mm 5 mps 761 mmHg 96%
    20:00 +25°C° 0 mm 5 mps 761 mmHg 96%
    21:00 +25°C° 0 mm 5 mps 762 mmHg 97%
    22:00 +25°C° 0.2 mm 4 mps 762 mmHg 97%
    23:00 +25°C° 0.2 mm 4 mps 761 mmHg 97%
    Show more